Погода в Битезе

Турция     37°01′39″N   27°22′43″E
темп.,
°C
ветер,
м/с
пор.,
м/с
влажн.,
%
обл.,
%
осадки,
мм/ч
давл.,
гПа
погр.,
м
18 августа, чт
чт1800:00+25сз35720 0.0 100689
03:00+24ссз44680 0.0 100598
06:00+24с45660 0.0 1004122
09:00+28ссз35500 0.0 1005139
12:00+33сз45380 0.0 1005483
15:00+34зсз77340 0.0 1003698
18:00+32сз812400 0.0 1003260
21:00+30ссз711440 0.0 1004184
19 августа, пт
пт1900:00+29с34490 0.0 100454
03:00+27ссз44500 0.0 100443
06:00+26ссз46550 0.0 100373
09:00+29с510440 0.0 1004285
12:00+34с610330 0.0 1005665
15:00+36с57280 0.0 10031030
18:00+34сз711360 0.0 1003366
21:00+30ссз712460 0.0 1004251
20 августа, сб
сб2000:00+27ссз45540 0.0 100456
03:00+26ссз44580 0.0 100448
06:00+25ссз44580 0.0 100458
09:00+28ссз44480 0.0 1004143
12:00+32сз33410 0.0 1004436
15:00+33зсз66390 0.0 1003618
18:00+31зсз68450 0.0 1003334
21:00+26зсз33690 0.0 100452
21 августа, вс
вс2100:00+25сз11740 0.0 100424
03:00+25ссз11680 0.0 100311
06:00+25сз22630 0.0 100230
09:00+28сз22490 0.0 1003124
12:00+30з33430 0.0 1003465
15:00+31з55410 0.0 1002518
18:00+29зсз45480 0.0 1002259
21:00+25с22660 0.0 100326
22 августа, пн
пн2200:00+24в01680 0.0 100314
03:00+24зюз01710 0.0 100324
06:00+23ююз01730 0.0 100332
09:00+26ю12590 0.0 1003179
12:00+27ю33590 0.0 1004427
15:00+27ююз55720 0.0 1005418
18:00+27ююз44720 0.0 1005316
21:00+25юз22790 0.0 100644